Regional Weather Roundup
Issued by NWS Cleveland, OH

Home | Current Version | Previous Version | Text Only | Print | Product List | Glossary Off
Versions: 1 2 3 4 5 6 7 8 9 10 11 12 13 14 15 16 17 18 19 20 21 22 23 24 25 26 27 28 29 30 31 32 33 34 35 36 37 38 39 40 41 42 43 44 45 46 47 48 49 50

000
ASUS41 KCLE 242310
RWRCLE
OHIO REGIONAL WEATHER ROUNDUP
NATIONAL WEATHER SERVICE WILMINGTON, OH
600 PM EST TUE JAN 24 2017

NOTE: "FAIR" INDICATES FEW OR NO CLOUDS BELOW 12,000 FEET WITH NO
SIGNIFICANT WEATHER AND/OR OBSTRUCTIONS TO VISIBILITY.

OHZ001>008-015>018-024>027-034-035-043-044-250000-
   NORTHWEST OHIO

CITY           SKY/WX    TMP DP  RH WIND       PRES   REMARKS
DEFIANCE       CLOUDY    39  34  82 W5        29.84R
FINDLAY        CLOUDY    40  33  76 W9        29.82R
TOLEDO EXPRESS CLOUDY    40  36  86 W12       29.81R
TOLEDO EXEC    CLOUDY    40  36  86 NW10      29.82R
LIMA           CLOUDY    39  35  86 W9        29.83R
$$

OHZ009>014-019>023-028>033-038-089-250000-
   NORTHEAST OHIO

CITY           SKY/WX    TMP DP  RH WIND       PRES   REMARKS
CLE-HOPKINS    DRIZZLE   41  37  86 W14       29.80R
CLE-LAKEFRONT  CLOUDY    37  36  96 W14       29.77R FOG
CUY CO. ARPT   DRZL/FOG  39  37  93 W13       29.76S VSB 3/4
LORAIN-ELYRIA  CLOUDY    39  35  86 NW10      29.79R
ASHTABULA      FOG       36  36 100 NW9       29.74R VSB 1
AKRON-CANTON   CLOUDY    40  36  86 NW10      29.76R FOG
WOOSTER        CLOUDY    40  38  93 NW15      29.77R
MANSFIELD      CLOUDY    39  37  92 W9        29.78R
YOUNGSTOWN     LGT RAIN  37  35  92 NW8       29.73R FOG
$$

OHZ042-051>053-060>062-070>072-077>081-250000-
  SOUTHWEST OHIO

CITY           SKY/WX    TMP DP  RH WIND       PRES   REMARKS
CINC-COVINGTON CLOUDY    41  34  76 NW7       29.87R
CINC-LUNKEN    CLOUDY    43  35  73 W6        29.90R
HAMILTON       CLOUDY    41  34  76 W9        29.91R
DAYTON         CLOUDY    39  33  79 W8        29.86R
WRIGHT-PAT AFB CLOUDY    40  35  81 NW7       29.86R
DAYTON GENERAL CLOUDY    41  34  76 W8        29.86R
WILMINGTON     CLOUDY    41  34  76 W12       29.85R
$$

OHZ036-037-039>041-045>050-054>059-063>069-073>076-082>088-250000-
  CENTRAL AND SOUTHEAST OHIO

CITY           SKY/WX    TMP DP  RH WIND       PRES   REMARKS
COLUMBUS       CLOUDY    42  37  82 W9        29.82R
OSU AIRPORT    CLOUDY    41  38  89 W9        29.82R
BOLTON FIELD   CLOUDY    41  37  87 W5        29.83R
RICKENBACK AFB NOT AVBL
NEWARK         CLOUDY    42  37  82 W8        29.81R
MARION         CLOUDY    40  35  83 W9        29.82R
LANCASTER      CLOUDY    43  38  82 W7        29.83R
ZANESVILLE     LGT RAIN  43  39  86 NW7       29.80R FOG
NEW PHILLY     CLOUDY    41  39  93 NW9       29.78R
$$



USA.gov is the U.S. government's official web portal to all federal, state and local government web resources and services.